Time,TemperatureF,DewpointF,PressureIn,WindDirection,WindDirectionDegrees,WindSpeedMPH,WindSpeedGustMPH,Humidity,HourlyPrecipIn,Conditions,Clouds,dailyrainin,SoftwareType,DateUTC
2013-09-28 00:05:00,64.1,51.4,30.08,East,85,0.6,5.0,54,0.00,NA,NA,0.00,meteo_script,2013-09-28 05:05:00,
2013-09-28 00:35:00,64.1,51.0,30.08,South,180,0.7,2.0,54,0.00,NA,NA,0.00,meteo_script,2013-09-28 05:35:00,
2013-09-28 01:05:00,63.9,50.5,30.08,SW,214,1.3,4.0,53,0.00,NA,NA,0.00,meteo_script,2013-09-28 06:05:00,
2013-09-28 01:35:00,63.4,50.4,30.06,SSW,204,1.1,3.0,54,0.00,NA,NA,0.00,meteo_script,2013-09-28 06:35:00,
2013-09-28 02:05:00,63.0,50.4,30.07,South,181,1.2,4.0,55,0.00,NA,NA,0.00,meteo_script,2013-09-28 07:05:00,
2013-09-28 02:35:00,62.3,50.4,30.07,South,171,0.9,3.0,57,0.00,NA,NA,0.00,meteo_script,2013-09-28 07:35:00,
2013-09-28 03:05:00,61.8,50.3,30.06,SSW,213,1.1,4.0,58,0.00,NA,NA,0.00,meteo_script,2013-09-28 08:05:00,
2013-09-28 03:35:00,61.3,50.4,30.06,SW,217,1.9,4.0,59,0.00,NA,NA,0.00,meteo_script,2013-09-28 08:35:00,
2013-09-28 04:05:00,60.9,50.5,30.05,SSE,159,0.8,3.0,60,0.00,NA,NA,0.00,meteo_script,2013-09-28 09:05:00,
2013-09-28 04:35:00,60.3,50.3,30.04,SW,224,0.5,1.0,62,0.00,NA,NA,0.00,meteo_script,2013-09-28 09:35:00,
2013-09-28 05:05:00,60.2,50.5,30.04,SSW,207,1.4,3.0,63,0.00,NA,NA,0.00,meteo_script,2013-09-28 10:05:00,
2013-09-28 05:35:00,60.3,50.9,30.04,South,179,0.9,5.0,64,0.00,NA,NA,0.00,meteo_script,2013-09-28 10:35:00,
2013-09-28 06:05:00,60.0,50.6,30.05,SSW,208,0.3,2.0,64,0.00,NA,NA,0.00,meteo_script,2013-09-28 11:05:00,
2013-09-28 06:35:00,59.1,50.4,30.06,SSW,210,1.9,5.0,66,0.00,NA,NA,0.00,meteo_script,2013-09-28 11:35:00,
2013-09-28 07:05:00,58.6,50.4,30.06,South,189,2.3,4.0,67,0.00,NA,NA,0.00,meteo_script,2013-09-28 12:05:00,
2013-09-28 07:35:00,58.3,50.6,30.05,South,190,2.3,5.0,69,0.00,NA,NA,0.00,meteo_script,2013-09-28 12:35:00,
2013-09-28 08:05:00,59.0,51.5,30.04,SSW,205,2.2,7.0,70,0.00,NA,NA,0.00,meteo_script,2013-09-28 13:05:00,
2013-09-28 08:35:00,60.0,52.3,30.04,SW,227,2.0,7.0,69,0.00,NA,NA,0.00,meteo_script,2013-09-28 13:35:00,
2013-09-28 09:05:00,61.5,53.5,30.04,SW,222,2.2,5.0,68,0.00,NA,NA,0.00,meteo_script,2013-09-28 14:05:00,
2013-09-28 09:35:00,64.0,55.1,30.04,SSW,192,4.0,10.0,66,0.00,NA,NA,0.00,meteo_script,2013-09-28 14:35:00,
2013-09-28 10:05:00,65.6,55.6,30.03,SW,214,2.9,6.0,63,0.00,NA,NA,0.00,meteo_script,2013-09-28 15:05:00,
2013-09-28 10:35:00,68.0,56.4,30.02,SSW,210,2.0,4.0,59,0.00,NA,NA,0.00,meteo_script,2013-09-28 15:35:00,
2013-09-28 11:05:00,69.3,56.5,30.01,SW,216,4.6,12.0,56,0.00,NA,NA,0.00,meteo_script,2013-09-28 16:05:00,
2013-09-28 11:35:00,70.7,57.4,29.99,South,189,2.9,5.0,55,0.00,NA,NA,0.00,meteo_script,2013-09-28 16:35:00,
2013-09-28 12:05:00,73.2,59.7,29.98,SSW,201,1.4,5.0,55,0.00,NA,NA,0.00,meteo_script,2013-09-28 17:05:00,
2013-09-28 12:35:00,76.0,61.5,29.95,South,186,3.7,9.0,53,0.00,NA,NA,0.00,meteo_script,2013-09-28 17:35:00,
2013-09-28 13:05:00,77.8,62.7,29.94,SW,215,6.2,15.0,52,0.00,NA,NA,0.00,meteo_script,2013-09-28 18:05:00,
2013-09-28 13:35:00,79.1,62.6,29.94,SW,216,7.1,15.0,49,0.00,NA,NA,0.00,meteo_script,2013-09-28 18:35:00,
2013-09-28 14:05:00,79.5,63.6,29.92,SSW,207,4.8,9.0,50,0.00,NA,NA,0.00,meteo_script,2013-09-28 19:05:00,
2013-09-28 14:35:00,79.5,63.4,29.90,South,182,8.0,14.0,50,0.00,NA,NA,0.00,meteo_script,2013-09-28 19:35:00,
2013-09-28 15:05:00,80.6,63.5,29.90,SSW,213,9.8,16.0,48,0.00,NA,NA,0.00,meteo_script,2013-09-28 20:05:00,
2013-09-28 15:35:00,78.3,63.1,29.89,SSW,211,7.4,16.0,52,0.00,NA,NA,0.00,meteo_script,2013-09-28 20:35:00,
2013-09-28 16:05:00,77.5,62.6,29.88,SSW,207,7.4,13.0,52,0.00,NA,NA,0.00,meteo_script,2013-09-28 21:05:00,
2013-09-28 16:35:00,75.8,63.6,29.89,SW,220,5.1,9.0,58,0.00,NA,NA,0.00,meteo_script,2013-09-28 21:35:00,
2013-09-28 17:05:00,73.4,63.7,29.89,SW,218,2.3,4.0,65,0.00,NA,NA,0.00,meteo_script,2013-09-28 22:05:00,
2013-09-28 17:35:00,71.6,64.2,29.90,SW,223,5.0,10.0,72,0.00,NA,NA,0.00,meteo_script,2013-09-28 22:35:00,
2013-09-28 18:05:00,69.4,64.2,29.91,SW,228,4.4,12.0,79,0.02,NA,NA,0.01,meteo_script,2013-09-28 23:05:00,
2013-09-28 18:35:00,68.3,64.4,29.91,SSW,201,4.9,12.0,84,0.18,NA,NA,0.10,meteo_script,2013-09-28 23:35:00,
2013-09-28 19:05:00,67.9,64.5,29.91,SW,216,5.3,8.0,86,0.04,NA,NA,0.12,meteo_script,2013-09-29 00:05:00,
2013-09-28 19:35:00,67.8,64.7,29.91,SSW,210,5.0,8.0,87,0.02,NA,NA,0.13,meteo_script,2013-09-29 00:35:00,
2013-09-28 20:05:00,64.7,60.1,29.94,WSW,251,0.8,2.0,81,0.02,NA,NA,0.14,meteo_script,2013-09-29 01:05:00,
2013-09-28 20:35:00,62.7,58.4,29.96,West,266,2.6,7.0,82,0.00,NA,NA,0.14,meteo_script,2013-09-29 01:35:00,
2013-09-28 21:35:00,59.7,55.8,29.98,West,270,0.7,3.0,83,0.08,NA,NA,0.20,meteo_script,2013-09-29 02:35:00,
2013-09-28 22:05:00,58.7,54.8,29.99,WSW,250,1.0,3.0,83,0.02,NA,NA,0.21,meteo_script,2013-09-29 03:05:00,
2013-09-28 22:35:00,57.8,53.6,30.00,WSW,254,1.1,2.0,82,0.00,NA,NA,0.21,meteo_script,2013-09-29 03:35:00,
2013-09-28 23:05:00,57.2,53.1,30.00,North,0,0.0,0.0,82,0.00,NA,NA,0.21,meteo_script,2013-09-29 04:05:00,
2013-09-28 23:35:00,57.4,53.5,30.02,WSW,256,0.9,3.0,83,0.00,NA,NA,0.21,meteo_script,2013-09-29 04:35:00,